Location: Votelez
(50.0000°N, 15.0000°E)
Time: 21:52:50
(UTC+01:00)

ARIANE 6 FM1 Upper Stage - Pass Details

Date: 14 February 2026
Orbit: 523 x 607 km, 62.0° (Epoch: 13 March)

Event Time Altitude Azimuth Distance (km) Brightness Sun altitude
Rises 18:37:46 0° 316° (NW) 2,664 6.7 -13.6°
Reaches altitude 10° 18:40:03 10° 323° (NW) 1,770 5.7 -13.9°
Maximum altitude 18:43:49 41° 35° (NE) 774 3.1 -14.5°
Enters shadow 18:45:24 27° 86° (E) 1,025 3.4 -14.8°
